Wind_Speed
8 8 7 7 7 6 4 2 5 6 7 7 8 9 9 9 11 11 9 9 8 8 8 8 7 7 7 7 8 8 8 9 8 8 7 7 6 6 6 5 5 4 3 2 1 1 0 1 1
8 8 8 8 8 10 7 5 9 9 9 8 9 11 11 9 10 11 10 10 9 9 9 9 9 9 9 9 9 9 10 10 10 9 9 9 8 8 7 7 7 6 5 5 4 3 2 2 1
10 10 9 8 8 10 12 10 11 10 9 10 11 13 13 12 11 11 11 11 10 10 10 10 10 10 10 10 11 11 11 11 11 11 10 10 10 10 9 9 8 8 7 7 6 5 4 4 3
12 11 10 10 8 10 13 12 14 13 9 10 14 15 14 12 12 12 12 12 11 10 10 10 10 11 11 11 12 12 12 12 12 12 12 12 12 11 11 11 10 10 9 9 8 7 7 6 5
13 12 12 10 10 12 14 16 14 12 11 13 15 16 14 11 12 12 12 12 11 10 10 11 12 12 12 12 13 13 13 14 14 14 14 14 13 13 13 13 12 12 12 11 11 10 9 8 7
14 14 12 10 12 18 17 16 15 14 14 15 17 16 14 12 12 12 12 13 12 11 12 13 13 13 13 14 15 15 15 15 15 16 15 15 15 15 15 15 14 14 14 13 13 12 11 10 9
15 14 13 11 13 18 19 19 17 18 18 19 18 16 15 12 10 12 13 14 14 13 14 13 14 14 15 15 16 16 17 17 17 18 18 17 17 17 17 17 16 16 16 15 15 14 13 13 12
15 14 13 11 13 17 20 21 20 21 21 21 20 20 17 11 9 12 14 15 15 15 15 15 16 16 16 16 17 17 18 18 19 19 19 19 19 19 19 19 18 18 18 17 17 16 15 14 14
14 13 12 12 16 20 21 22 21 20 22 22 22 22 18 15 14 15 15 16 16 16 16 16 16 16 17 17 17 18 19 19 20 21 21 21 21 22 22 22 21 21 20 19 19 18 17 17 16
14 13 14 17 20 23 23 23 23 22 20 18 19 20 20 19 17 17 16 17 18 18 18 18 18 18 18 18 18 19 20 20 20 21 24 24 23 23 23 23 24 23 23 22 21 20 20 19 19
13 14 16 18 20 21 22 22 23 22 20 18 17 17 19 19 20 17 17 18 19 19 19 19 20 20 21 20 20 21 21 21 21 22 23 23 23 22 22 23 24 24 24 24 24 23 22 21 21
13 13 15 17 17 19 21 22 22 21 20 18 18 19 20 20 18 18 19 18 19 20 20 20 21 22 22 23 23 21 21 22 22 23 22 23 22 21 21 23 23 24 24 25 25 25 24 23 23
11 11 12 14 15 15 18 20 19 18 20 20 19 20 21 22 20 18 19 18 19 21 22 23 23 23 24 25 24 23 23 24 24 23 23 22 23 22 22 23 24 25 24 24 25 26 26 25 23
8 9 11 12 12 13 15 15 15 16 17 18 18 19 20 20 19 19 20 20 21 22 22 23 24 24 25 26 26 25 24 25 24 24 23 22 22 24 23 23 24 24 24 24 25 26 26 27 26
7 9 12 11 12 12 14 13 12 12 13 15 16 15 17 19 20 20 21 21 23 24 25 26 25 25 26 25 26 25 24 24 24 23 22 22 22 22 23 23 23 24 24 25 26 27 27 27 27
10 12 13 13 11 11 13 10 9 9 10 12 13 14 15 16 17 19 21 22 23 24 25 26 27 26 26 26 25 24 24 24 23 22 22 23 23 22 22 22 22 23 25 26 26 27 27 26 26
13 13 13 11 11 12 13 11 9 9 10 11 12 13 14 15 16 18 20 21 22 23 24 25 25 25 24 23 23 23 22 22 22 22 22 23 22 22 22 22 23 24 24 24 25 26 27 27 28
11 11 11 12 12 12 13 12 10 9 11 10 12 12 13 14 15 16 18 19 20 21 22 22 22 20 20 20 21 21 21 22 22 22 22 23 23 23 24 24 25 25 25 25 25 26 28 28 27
9 9 10 12 13 11 10 10 10 10 10 10 9 9 12 13 13 14 16 17 18 18 18 19 20 18 18 18 19 21 22 22 22 22 22 23 24 24 25 25 25 26 26 26 27 27 28 28 28
9 8 9 9 10 11 11 10 9 9 10 10 9 10 10 11 12 14 15 15 17 17 17 18 18 18 18 19 20 20 21 21 21 22 22 23 24 24 24 25 25 26 27 27 28 28 29 29 29
9 8 9 9 9 10 10 9 8 7 9 9 9 9 10 11 12 13 14 15 16 16 17 17 17 17 18 20 20 21 21 21 21 21 22 22 23 24 24 24 25 26 27 28 28 29 30 30 31
8 7 8 9 11 11 10 11 10 10 8 9 9 10 10 11 13 14 15 16 16 16 17 17 17 18 19 20 20 20 20 21 21 21 21 21 22 22 23 24 25 26 27 28 29 30 31 32 33
8 7 6 7 10 11 9 10 11 10 11 10 10 10 11 12 14 15 16 17 17 18 18 18 18 19 19 19 20 20 20 21 21 21 21 22 22 23 24 25 26 27 28 29 30 31 32 33 34
6 6 7 8 10 10 9 11 12 12 12 12 11 12 12 14 15 16 17 18 18 19 19 19 19 19 20 20 20 21 21 21 21 22 22 23 23 24 24 25 26 27 28 29 30 32 32 33 34
7 7 9 12 12 11 11 10 11 11 12 13 13 13 14 14 16 17 18 18 19 19 19 19 20 20 21 21 21 21 21 21 22 23 23 24 24 25 25 25 26 27 28 29 30 31 32 33 35
6 6 8 9 10 10 9 11 12 11 12 12 13 14 15 15 16 18 18 18 18 19 20 20 21 21 21 21 22 22 21 22 22 22 23 24 24 25 25 25 26 27 27 28 30 31 32 33 34
6 5 5 8 8 7 6 13 11 12 12 12 13 14 15 16 17 18 19 19 19 19 20 21 22 22 22 22 22 22 22 22 23 23 23 23 24 24 25 26 26 27 27 28 29 31 32 33 35
6 5 4 6 8 10 8 12 15 15 14 15 15 15 16 17 18 18 18 19 19 20 21 21 22 22 22 22 22 22 22 22 23 23 24 23 24 25 25 26 27 28 29 30 31 32 33 34 35
8 7 5 4 5 6 10 14 16 16 15 16 17 17 17 18 18 19 19 20 20 20 21 22 22 22 23 23 23 23 23 23 24 24 24 24 25 25 26 27 28 29 30 30 31 32 33 34 35
9 7 6 6 5 4 9 17 16 16 16 16 16 17 17 18 18 19 19 20 21 22 22 23 23 23 23 24 23 24 24 24 25 25 25 25 26 26 27 28 28 29 29 30 30 31 32 33 34
Wind_Direction
344 341 338 333 329 322 309 8 313 299 298 295 298 288 284 281 287 302 313 311 311 305 304 300 298 296 291 287 287 286 286 286 284 281 280 279 280 280 280 278 278 275 270 267 274 286 27 62 57
327 322 318 317 323 315 309 318 309 310 304 302 295 288 290 290 295 302 305 307 306 302 299 298 296 294 291 288 287 285 284 283 281 279 277 276 275 272 271 273 274 273 272 272 271 268 264 263 274
311 306 303 305 310 300 302 311 309 303 298 292 285 282 289 296 298 300 300 302 300 299 295 297 294 292 291 289 287 286 283 280 278 278 275 274 273 270 269 269 270 269 270 273 273 268 263 260 262
300 295 292 291 286 279 283 286 287 286 284 279 276 277 274 281 293 296 300 301 300 299 294 299 299 296 294 293 291 288 282 279 277 276 276 274 271 268 267 269 268 267 267 269 272 269 263 259 260
293 289 288 290 290 280 275 279 281 278 273 275 278 277 273 279 288 292 297 299 299 301 299 301 301 300 299 296 293 290 284 280 278 275 274 273 271 268 267 268 269 267 268 268 267 267 264 259 260
287 284 283 287 284 277 277 276 277 271 269 272 273 277 275 277 280 291 299 299 304 301 299 301 303 300 296 294 292 288 282 280 279 276 273 270 269 268 266 267 268 268 268 267 266 266 263 261 260
283 277 274 273 272 277 283 283 276 269 264 262 262 272 271 266 271 288 295 300 305 306 302 301 303 302 298 296 294 289 283 280 279 276 273 270 268 266 266 266 267 267 265 264 263 263 263 261 259
282 274 269 270 266 271 276 277 274 270 266 265 266 268 265 268 281 290 295 300 304 306 303 298 298 297 297 296 292 290 285 280 278 276 271 268 266 264 264 265 266 265 263 261 259 259 259 258 258
280 272 271 260 257 260 263 267 272 272 265 260 262 265 279 286 285 288 292 295 299 302 301 297 296 297 297 295 292 290 287 283 279 275 270 267 266 264 262 263 262 261 261 260 258 257 256 255 256
277 269 262 258 256 262 263 265 269 271 266 254 254 260 266 275 281 283 287 291 294 298 300 299 297 299 297 296 294 292 287 283 283 279 271 267 267 264 261 261 260 260 259 258 257 256 255 256 257
282 267 262 260 261 265 266 267 270 269 263 257 249 262 267 270 273 280 283 288 291 295 297 298 298 297 296 296 295 292 287 285 285 284 279 273 269 270 264 260 257 258 259 256 254 254 254 255 257
285 275 274 271 271 268 267 268 266 267 263 269 268 269 268 271 274 281 283 285 288 292 293 295 294 295 295 294 292 290 286 285 286 286 281 277 273 272 271 268 264 260 259 254 251 252 253 253 254
299 293 286 286 286 278 271 268 266 268 267 272 270 268 269 272 270 273 279 289 292 293 291 291 293 292 291 291 292 291 287 285 284 283 281 280 276 273 273 271 270 267 263 256 251 252 254 252 253
297 295 292 291 295 290 283 275 269 267 265 268 268 268 271 273 277 281 282 289 288 292 291 291 290 291 291 291 290 290 287 285 285 284 282 282 280 275 274 272 272 270 265 261 258 256 255 254 253
315 302 296 295 297 299 298 290 268 266 268 270 271 272 274 276 279 282 285 288 289 290 291 292 290 290 291 291 290 290 287 287 286 283 282 283 284 277 272 271 271 270 267 261 260 259 257 256 255
322 305 304 306 312 308 309 298 284 287 282 277 276 277 279 281 282 284 285 287 289 290 291 293 292 290 290 290 289 288 286 286 286 284 284 283 281 281 275 272 273 271 269 267 263 259 259 259 258
333 326 328 320 313 310 306 300 302 303 294 286 283 283 285 288 286 289 292 291 290 290 291 293 294 293 291 290 290 290 289 288 287 288 286 283 281 280 277 274 274 273 273 271 267 263 259 260 259
326 313 310 302 309 315 314 317 324 318 305 298 291 287 289 291 291 292 294 295 294 293 294 295 296 294 293 294 293 292 291 289 289 289 288 284 283 281 279 277 275 273 273 272 269 267 264 262 260
311 298 295 299 308 319 326 328 333 328 314 303 294 292 297 299 298 301 300 299 301 302 301 300 298 298 296 297 297 295 294 292 291 289 287 285 283 282 280 278 276 275 274 272 269 267 265 263 262
298 293 296 297 311 316 318 323 323 324 320 315 306 306 311 305 305 306 306 309 310 307 307 309 303 303 303 303 302 300 298 296 293 291 290 287 285 283 281 279 277 276 274 272 270 268 267 264 262
300 302 302 303 305 312 310 321 327 334 330 326 321 322 318 318 320 320 319 318 319 317 317 317 313 309 308 306 304 302 300 298 296 294 291 289 287 285 283 281 279 277 275 273 271 269 268 266 263
309 311 312 309 304 299 312 323 330 343 351 346 340 335 330 331 331 330 330 329 329 329 329 327 323 318 315 313 311 307 305 303 302 299 296 292 289 287 285 283 281 279 276 273 271 270 268 266 264
305 309 301 296 285 295 323 336 343 349 355 349 345 346 345 341 340 341 342 341 338 336 333 331 328 325 322 320 317 314 311 307 304 302 299 297 294 292 289 287 285 283 279 276 273 271 269 267 265
297 296 294 300 303 326 351 344 339 352 352 350 350 349 348 346 344 344 343 341 338 337 336 335 332 330 327 324 321 317 314 311 308 305 302 300 297 294 292 289 287 285 282 280 277 274 271 268 265
304 304 319 336 344 355 359 342 343 351 353 350 349 348 346 344 343 343 342 341 340 338 337 336 336 333 330 327 324 320 317 313 311 307 304 302 300 298 296 294 291 289 286 283 280 277 274 270 267
303 309 328 339 340 332 339 334 341 340 347 344 341 341 341 342 342 341 341 341 341 340 339 338 337 335 332 329 327 324 321 318 315 312 308 306 304 302 300 298 296 294 291 287 283 279 276 273 269
295 299 299 310 311 300 302 317 331 337 339 337 336 337 339 340 340 340 341 341 341 341 340 338 337 335 333 331 329 327 325 322 320 317 314 311 309 306 304 302 300 297 294 291 286 282 278 275 272
288 277 290 319 319 328 311 308 326 335 335 333 334 336 337 338 339 340 340 341 340 340 339 337 336 336 335 333 331 330 328 325 324 322 319 316 313 310 308 306 303 300 296 293 290 285 280 277 273
285 283 264 256 253 301 319 305 312 321 326 328 330 334 336 337 338 340 341 341 341 340 339 339 338 338 337 336 334 332 330 328 326 324 322 318 316 314 312 309 307 304 300 296 292 288 284 279 275
272 278 281 277 267 267 293 292 304 311 317 321 325 330 332 334 337 339 340 341 341 341 341 341 341 340 339 338 336 334 333 331 329 326 324 321 319 317 315 313 310 306 303 299 296 291 287 282 277
Height
5919 5919 5918 5918 5917 5915 5912 5912 5913 5912 5913 5912 5911 5909 5907 5907 5906 5906 5904 5904 5904 5904 5904 5904 5904 5904 5904 5904 5903 5903 5903 5902 5902 5902 5902 5901 5901 5901 5900 5900 5900 5899 5899 5899 5899 5899 5899 5899 5899
5918 5918 5918 5917 5915 5912 5910 5911 5912 5912 5912 5911 5910 5907 5905 5904 5904 5904 5903 5903 5903 5903 5903 5903 5902 5903 5902 5902 5902 5902 5902 5901 5901 5901 5901 5901 5900 5900 5900 5900 5899 5899 5899 5899 5899 5899 5899 5899 5899
5917 5916 5916 5916 5915 5913 5911 5910 5911 5910 5910 5909 5907 5905 5905 5903 5903 5902 5902 5902 5902 5901 5901 5901 5901 5901 5901 5901 5901 5900 5900 5900 5900 5900 5900 5900 5899 5899 5899 5899 5899 5899 5899 5899 5899 5899 5899 5899 5899
5915 5915 5915 5914 5913 5912 5912 5910 5909 5908 5907 5906 5904 5903 5901 5902 5902 5901 5899 5899 5900 5900 5899 5899 5899 5899 5899 5899 5899 5899 5899 5899 5898 5898 5898 5898 5898 5898 5898 5898 5897 5897 5897 5898 5898 5898 5898 5898 5899
5912 5912 5912 5911 5911 5909 5908 5907 5907 5907 5904 5903 5900 5899 5896 5897 5899 5898 5897 5897 5897 5898 5897 5897 5897 5897 5897 5897 5897 5897 5897 5897 5896 5896 5896 5896 5896 5896 5896 5896 5896 5896 5896 5896 5896 5897 5897 5897 5898
5910 5910 5910 5909 5910 5908 5904 5903 5902 5903 5901 5900 5897 5894 5892 5894 5895 5895 5895 5895 5896 5896 5896 5895 5895 5895 5895 5895 5894 5894 5894 5894 5894 5894 5894 5894 5894 5894 5894 5894 5894 5894 5894 5894 5895 5895 5896 5896 5897
5907 5906 5906 5907 5908 5906 5902 5900 5899 5898 5897 5897 5894 5891 5889 5888 5891 5892 5893 5892 5893 5893 5893 5893 5893 5893 5892 5892 5892 5891 5891 5891 5891 5891 5891 5891 5891 5891 5891 5891 5891 5891 5892 5892 5893 5893 5894 5894 5895
5902 5903 5903 5905 5905 5903 5899 5897 5895 5894 5894 5893 5890 5889 5882 5883 5886 5890 5890 5890 5890 5891 5891 5891 5890 5890 5889 5889 5888 5888 5887 5887 5887 5887 5887 5887 5887 5887 5887 5888 5888 5888 5888 5889 5890 5890 5891 5892 5892
5898 5900 5900 5901 5900 5898 5894 5891 5890 5890 5888 5888 5887 5886 5882 5883 5885 5887 5888 5888 5888 5887 5887 5887 5887 5885 5886 5885 5885 5884 5883 5883 5883 5883 5883 5883 5883 5883 5883 5884 5884 5884 5885 5885 5886 5887 5888 5888 5889
5895 5896 5896 5896 5895 5893 5890 5887 5886 5883 5879 5879 5882 5882 5883 5883 5882 5883 5884 5884 5884 5884 5884 5884 5883 5882 5882 5881 5881 5880 5879 5879 5879 5878 5878 5878 5878 5878 5879 5879 5879 5880 5880 5881 5882 5883 5884 5885 5886
5891 5892 5891 5890 5889 5888 5886 5883 5882 5880 5875 5875 5876 5879 5880 5879 5880 5878 5879 5880 5880 5881 5881 5880 5880 5879 5878 5878 5877 5876 5875 5874 5874 5873 5873 5873 5873 5873 5873 5873 5873 5874 5875 5876 5878 5879 5880 5881 5882
5888 5888 5886 5885 5884 5883 5881 5879 5877 5876 5875 5873 5875 5877 5877 5877 5876 5875 5875 5875 5876 5877 5877 5877 5877 5876 5875 5874 5873 5872 5871 5870 5869 5868 5867 5867 5867 5867 5868 5867 5868 5869 5869 5870 5872 5873 5875 5876 5878
5885 5884 5883 5881 5879 5878 5876 5873 5873 5873 5873 5873 5874 5875 5875 5873 5872 5872 5871 5869 5872 5874 5873 5873 5872 5871 5870 5869 5868 5867 5866 5865 5864 5864 5863 5862 5862 5862 5862 5862 5863 5863 5864 5865 5866 5868 5869 5870 5872
5883 5882 5880 5877 5876 5873 5870 5868 5869 5869 5869 5870 5871 5871 5871 5870 5868 5869 5869 5870 5871 5869 5868 5868 5868 5866 5865 5864 5863 5862 5861 5860 5859 5858 5858 5858 5857 5857 5857 5857 5857 5857 5858 5859 5861 5862 5863 5865 5866
5880 5878 5876 5874 5873 5870 5868 5867 5866 5866 5867 5867 5867 5868 5867 5867 5866 5867 5868 5868 5867 5866 5865 5864 5863 5861 5860 5859 5858 5857 5856 5855 5854 5853 5853 5852 5852 5852 5852 5852 5852 5852 5853 5854 5855 5855 5856 5858 5860
5877 5875 5874 5872 5870 5867 5867 5865 5864 5864 5864 5865 5865 5866 5865 5864 5864 5865 5864 5864 5863 5862 5861 5860 5858 5857 5855 5854 5853 5852 5851 5850 5849 5848 5848 5847 5847 5847 5846 5847 5847 5847 5848 5848 5849 5850 5850 5852 5853
5876 5875 5873 5871 5869 5868 5865 5863 5862 5862 5862 5863 5864 5864 5863 5863 5862 5862 5861 5860 5859 5858 5857 5855 5853 5852 5850 5849 5848 5847 5846 5845 5844 5843 5843 5842 5841 5841 5841 5841 5841 5841 5842 5842 5843 5844 5845 5846 5847
5877 5876 5874 5872 5869 5868 5865 5862 5862 5862 5861 5862 5862 5861 5861 5860 5860 5859 5858 5857 5856 5855 5853 5851 5849 5847 5846 5845 5843 5842 5841 5840 5839 5838 5837 5836 5836 5836 5835 5835 5835 5835 5836 5836 5837 5838 5838 5839 5840
5877 5875 5873 5871 5868 5867 5865 5864 5862 5862 5861 5860 5859 5858 5859 5858 5857 5856 5855 5854 5852 5851 5849 5847 5845 5844 5842 5841 5839 5838 5836 5835 5834 5833 5832 5831 5831 5830 5830 5830 5830 5829 5830 5830 5830 5831 5832 5833 5834
5875 5874 5873 5870 5868 5867 5865 5862 5861 5860 5860 5858 5857 5856 5856 5856 5855 5854 5852 5850 5849 5847 5845 5843 5841 5840 5838 5836 5835 5833 5831 5830 5829 5828 5827 5826 5825 5824 5824 5823 5823 5823 5823 5823 5823 5823 5824 5825 5826
5874 5873 5871 5869 5867 5865 5864 5861 5858 5856 5858 5857 5855 5855 5855 5854 5853 5851 5850 5848 5846 5843 5842 5840 5837 5835 5834 5832 5830 5829 5827 5825 5824 5823 5821 5820 5819 5818 5817 5817 5816 5816 5816 5816 5816 5816 5816 5817 5818
5873 5872 5870 5868 5867 5864 5862 5859 5857 5857 5856 5856 5854 5854 5853 5852 5851 5849 5847 5845 5843 5841 5839 5837 5834 5832 5830 5828 5826 5824 5822 5820 5819 5817 5816 5815 5813 5812 5811 5810 5809 5809 5808 5808 5808 5808 5809 5809 5810
5872 5870 5868 5866 5864 5860 5858 5858 5859 5856 5856 5856 5855 5854 5852 5851 5850 5847 5845 5842 5840 5838 5836 5834 5831 5829 5826 5824 5822 5819 5817 5815 5813 5812 5810 5809 5808 5806 5805 5804 5803 5802 5801 5800 5800 5800 5800 5800 5801
5870 5869 5867 5864 5861 5858 5858 5859 5858 5856 5856 5856 5854 5853 5852 5850 5848 5846 5844 5841 5839 5836 5833 5831 5828 5826 5823 5820 5818 5815 5813 5811 5809 5807 5805 5803 5802 5800 5799 5797 5796 5794 5793 5792 5791 5791 5791 5791 5791
5870 5869 5867 5863 5860 5860 5860 5861 5859 5857 5857 5856 5854 5853 5852 5850 5847 5845 5843 5840 5837 5834 5831 5829 5826 5823 5820 5817 5814 5812 5809 5806 5804 5802 5799 5797 5795 5793 5792 5790 5788 5786 5785 5784 5783 5782 5781 5781 5782
5869 5868 5868 5865 5864 5862 5860 5860 5860 5858 5857 5856 5854 5853 5851 5849 5846 5844 5841 5838 5836 5832 5829 5826 5823 5820 5817 5814 5811 5808 5805 5802 5799 5797 5794 5792 5789 5787 5785 5783 5781 5779 5777 5775 5774 5773 5772 5771 5772
5868 5867 5867 5865 5863 5861 5859 5858 5858 5858 5857 5856 5854 5852 5850 5848 5845 5843 5840 5837 5834 5831 5827 5824 5821 5817 5814 5811 5807 5804 5801 5798 5795 5792 5789 5786 5783 5781 5778 5776 5773 5771 5769 5767 5765 5764 5762 5761 5761
5867 5867 5867 5866 5864 5862 5860 5858 5856 5856 5855 5855 5853 5851 5849 5847 5844 5841 5838 5835 5832 5829 5826 5822 5819 5815 5811 5808 5804 5801 5797 5794 5790 5787 5784 5780 5777 5774 5772 5769 5766 5763 5760 5758 5756 5754 5752 5751 5750
5865 5865 5864 5865 5864 5864 5861 5860 5857 5857 5856 5854 5852 5850 5847 5845 5842 5839 5836 5833 5830 5827 5823 5820 5816 5812 5808 5805 5801 5797 5793 5790 5786 5782 5779 5775 5772 5768 5765 5762 5758 5755 5752 5749 5746 5744 5742 5740 5739
5862 5863 5863 5863 5863 5863 5862 5860 5856 5856 5855 5853 5850 5848 5846 5843 5841 5838 5835 5832 5828 5825 5821 5817 5813 5809 5805 5802 5798 5794 5790 5785 5781 5777 5773 5770 5766 5762 5758 5754 5751 5747 5743 5740 5737 5734 5731 5730 5728